Regional Weather Roundup
Issued by NWS Sioux Falls, SD

Home | Current Version | Previous Version | Graphics & Text | Print | Product List | Glossary Off
Versions: 1 2 3 4 5 6 7 8 9 10 11 12 13 14 15 16 17 18 19 20 21 22 23 24 25 26 27 28 29 30 31 32 33 34 35 36 37 38 39 40 41 42 43 44 45 46 47 48 49 50

000
ASUS43 KFSD 010210
RWRFSD

WEATHER ROUNDUP FOR SE SOUTH DAKOTA/SW MINNESOTA/NW IOWA
NATIONAL WEATHER SERVICE SIOUX FALLS SD
900 PM CDT TUE MAY 31 2016

NOTE: "FAIR" INDICATES FEW OR NO CLOUDS BELOW 12,000 FEET WITH NO
SIGNIFICANT WEATHER AND OR OBSTRUCTIONS TO VISIBILITY.


SDZ038>040-050-052>070-010300-
SOUTHEAST SOUTH DAKOTA

CITY           SKY/WX    TMP DP  RH WIND       PRES   REMARKS
BROOKINGS      CLEAR     65  47  52 W16G23    29.84R
CHAMBERLAIN    CLEAR     62  48  61 W16       29.94R
HURON          MOCLDY    62  46  55 W20G31    29.86R
MADISON        FAIR      64  48  55 W12       29.87R
MITCHELL       CLEAR     65  49  56 W15       29.90R
SIOUX FALLS    CLOUDY    68  51  54 W6        29.87R
WINNER         FAIR      61  44  53 NW17G28   29.97R
YANKTON        CLEAR     68  48  49 NW9       29.88R
$$

MNZ071-072-080-081-089-090-097-098-010300-
SOUTHWEST MINNESOTA

CITY           SKY/WX    TMP DP  RH WIND       PRES   REMARKS
FAIRMONT       CLEAR     66  54  63 SW5       29.88S
JACKSON        CLEAR     64  50  59 SW6       29.89S
LUVERNE        MOCLDY    64  46  52 S8        29.87S
MARSHALL       MOCLDY    69  50  50 SW10      29.83R
MONTEVIDEO     CLOUDY    70  48  46 W6        29.81S
PIPESTONE      CLOUDY    66  50  55 SW12G17   29.87R
REDWOOD FALLS  CLEAR     67  50  54 S8        29.82F
TRACY          PTCLDY    67  52  59 SW8       29.84F
WINDOM         CLEAR     66  50  55 CALM      29.87S
WORTHINGTON    PTCLDY    66  51  58 S8        29.88F
$$

IAZ001>003-012>014-020>022-031-032-NEZ013-014-SDZ071-010300-
NORTHWEST IOWA

CITY           SKY/WX    TMP DP  RH WIND       PRES   REMARKS
CHEROKEE       CLEAR     62  54  74 CALM      29.91S
DENISON        CLEAR     66  55  68 CALM      29.91S
ESTHERVILLE    CLEAR     65  54  67 SW5       29.89S
LE MARS        CLEAR     68  54  60 S7        29.90S
ORANGE CITY    CLEAR     66  54  63 S5        29.90S
SHELDON        CLEAR     64  50  59 S6        29.88S
SIOUX CITY     CLEAR     68  51  54 S7        29.90S
SPENCER        CLEAR     64  51  62 SW6       29.90S
STORM LAKE     CLEAR     64  52  63 SW6       29.92F
$$

ABBREVIATIONS USED IN REMARKS
   TC - TEMPERATURE IN CELSIUS
  WCI - WIND CHILL INDEX
   HX - HEAT INDEX
  VSB - VISIBILITY





USA.gov is the U.S. government's official web portal to all federal, state and local government web resources and services.